x

Southeast Papa - 600nm West Of Eureka, Ca (46006) Weather Station

7:50pm - Mon 27th Feb 2017 All times are UTC.

  • Wind
    18mph, 25mph gusts
  • Sea Temp 52°f
  • Air Temp 47°f
  • Sea Pressure 1027.5mb

More Historic Weather Station data

Upgrade to MSW Pro to gain access to the past 30 days of data for over 8000 Wavebouys and Weather Stations around the globe.

Join Pro

Comparision Forecast

View Surf forecast
   
Mon 02/27 7:50pm 18 25 mph 1027.5mb 52f 47f
7:40pm 18 25 mph 1027.7mb 52f 47f
7:30pm 16 25 mph 1027.5mb 52f 47f
7:20pm 16 22 mph 1027.5mb 52f 47f
7:00pm 18 25 mph - 52f 47f
6:50pm 16 22 mph 1027.5mb 52f 47f
6:40pm 16 22 mph 1027.5mb 52f 47f
6:30pm 16 22 mph 1027.5mb 52f 47f
6:20pm 18 25 mph 1027.5mb 52f 47f
6:10pm 18 22 mph 1027.5mb 52f 47f
6:00pm 20 25 mph 1027.5mb 52f 47f
5:50pm 20 25 mph 1027.3mb 52f 47f
5:40pm 18 25 mph 1027.3mb 52f 47f
5:30pm 18 22 mph 1027mb 52f 47f
5:20pm 20 25 mph 1027mb 52f 47f
5:10pm 20 25 mph 1027mb 52f 48f
5:00pm 20 25 mph 1027mb 52f 48f
4:50pm 18 25 mph 1027mb 52f 48f
4:40pm 18 25 mph 1026.8mb 52f 48f
4:30pm 18 25 mph 1026.8mb 52f 48f
4:20pm 20 25 mph 1026.8mb 52f 48f
4:10pm 18 25 mph 1026.5mb 52f 48f
4:00pm 18 25 mph 1026.7mb 52f 48f
3:50pm 20 25 mph 1026.5mb 52f 48f
3:40pm 22 29 mph 1026.5mb - 48f
3:30pm 20 25 mph 1026.5mb 52f 47f
3:20pm 20 25 mph 1026.5mb 52f 48f
3:10pm 18 22 mph 1026.5mb 52f 48f
3:00pm 20 27 mph 1026.5mb 52f 48f
2:50pm 18 25 mph 1026.5mb 52f 47f
2:40pm 18 25 mph 1026.3mb 52f 48f
2:30pm 20 25 mph 1026.3mb 52f 48f
2:20pm 18 22 mph 1026.3mb 52f 48f
2:10pm 20 27 mph 1026.3mb 52f 47f
2:00pm 20 29 mph - - 48f
1:50pm 18 22 mph 1026.2mb 52f 47f
1:40pm 18 27 mph 1026mb 52f 47f
1:30pm 20 25 mph 1026mb 52f 47f
1:20pm 18 25 mph 1026mb 52f 47f
1:10pm 18 25 mph 1025.8mb 52f 47f
1:00pm 18 27 mph 1025.8mb 52f 47f
12:50pm 18 25 mph 1025.8mb - 47f
12:40pm 16 20 mph 1025.8mb 52f 47f
12:30pm 18 22 mph 1025.8mb 52f 47f
12:20pm 18 27 mph 1025.8mb 52f 47f
12:10pm 16 25 mph 1025.8mb - 47f
12:00pm 18 22 mph 1025.8mb 52f 47f
11:50am 18 22 mph 1026mb 52f 47f
11:40am 16 22 mph 1026mb 52f 47f
11:30am 18 25 mph 1026.2mb 52f 47f
11:20am 20 27 mph 1026.3mb 52f 47f
11:10am 20 27 mph 1026.2mb 52f 47f
11:00am 20 25 mph 1026.3mb 52f 47f
10:50am 20 27 mph 1026.3mb 52f 48f
10:40am 20 27 mph 1026.3mb 52f -
10:30am 20 27 mph 1026.3mb 52f 48f
10:20am 18 25 mph 1026.3mb 52f 48f
10:10am 18 25 mph 1026.3mb 52f 47f
10:00am 16 20 mph 1026.3mb 52f 47f
9:50am 16 20 mph 1026.3mb 52f 47f
9:40am 18 25 mph 1026.5mb 52f 47f
9:30am 20 27 mph 1026.5mb 52f 47f
9:20am 18 22 mph 1026.5mb 52f 47f
9:10am 18 25 mph 1026.3mb 52f 47f
9:00am 20 27 mph 1026.3mb 52f 47f
8:50am 22 29 mph 1026.3mb 52f 47f
8:40am 18 27 mph 1026.3mb 52f 47f
8:30am 20 27 mph 1026.5mb 52f 47f
8:20am 16 22 mph 1026.3mb 52f 47f
8:10am 20 29 mph 1026.5mb - 46f
8:00am 20 29 mph 1026.5mb 52f 46f
7:50am 22 29 mph 1026.5mb 52f 47f
7:40am 20 27 mph 1026.3mb 52f 47f
7:30am 20 25 mph 1026.2mb 52f 48f
7:20am 20 27 mph 1026.2mb 52f 48f
7:10am 20 27 mph 1026mb 52f 48f
7:00am 22 27 mph 1026.2mb 52f 48f
6:50am 18 27 mph 1026.2mb 52f 48f
6:40am 20 27 mph 1026.3mb 52f 48f
6:30am 20 27 mph 1026.2mb 52f 48f
6:20am 22 27 mph 1026.3mb 52f 48f
6:10am 22 27 mph 1026.2mb 52f 48f
6:00am 22 29 mph 1026.2mb 52f 48f
5:50am 22 29 mph 1026.2mb 52f 48f
5:40am 20 27 mph 1026mb 52f 48f
5:30am 20 27 mph 1026mb 52f 47f
5:20am 22 29 mph 1026mb 52f 47f
5:10am 25 31 mph 1026mb 52f 48f
5:00am 22 29 mph 1025.8mb 52f 48f
4:50am 25 31 mph 1025.8mb 52f 48f
4:40am 22 29 mph 1025.8mb 52f 48f
4:30am 20 29 mph 1025.7mb 52f 48f
4:20am 20 25 mph 1025.8mb 52f 48f
4:10am 22 29 mph 1025.7mb 52f 48f
4:00am 25 34 mph 1025.8mb 52f 48f
3:50am 22 29 mph 1025.7mb 52f 48f
3:40am 20 27 mph 1025.8mb 52f 48f
3:30am 22 29 mph 1025.8mb 52f 48f
3:20am 25 31 mph 1025.7mb 52f 48f
3:10am 22 31 mph 1025.5mb 52f 48f
3:00am 22 27 mph 1025.5mb 52f -
2:50am 25 31 mph 1025.3mb 52f 48f
2:40am 22 27 mph 1025.3mb 52f 48f
2:30am 22 29 mph 1025.2mb - 48f
2:20am 22 29 mph 1025.3mb 52f 48f
2:10am 22 29 mph 1025.3mb 52f 48f
2:00am 25 31 mph 1025.2mb 52f 48f
1:50am 22 29 mph 1025.2mb 52f 48f
1:40am 25 31 mph 1025.2mb 52f 48f
1:30am 22 29 mph 1025.2mb 52f 48f
1:20am 22 29 mph 1025.2mb 52f 48f
1:10am 22 31 mph 1025.2mb 52f 48f
1:00am 25 31 mph 1025.3mb 52f 48f
12:50am 22 27 mph 1025mb 52f 48f
12:40am 22 27 mph 1025mb 52f 48f
12:30am 25 29 mph 1025.2mb 52f 48f
12:20am 22 29 mph 1025.2mb 52f 48f
12:10am 25 29 mph 1025.2mb 52f 48f
12:00am 22 29 mph 1025.2mb 52f 48f
Sun 02/26 11:50pm 25 31 mph 1025.2mb 52f 48f
11:40pm 25 31 mph 1025.3mb 52f 48f
11:20pm 22 29 mph 1025.3mb 52f 47f
11:10pm 25 31 mph 1025.5mb 52f 47f
11:00pm 25 31 mph 1025.3mb 52f 47f
10:50pm 25 29 mph 1025.5mb 52f 48f
10:40pm 25 31 mph 1025.5mb 52f 48f
10:30pm 25 29 mph 1025.5mb 52f 48f
10:20pm 25 29 mph 1025.5mb 52f -
10:10pm 22 29 mph 1025.8mb 52f 47f
10:00pm 22 29 mph 1025.8mb 52f 47f
9:50pm 25 29 mph 1025.8mb 52f 47f
9:40pm 25 29 mph 1026mb 52f 47f
9:30pm 25 31 mph 1026mb 52f 47f
9:20pm 22 27 mph 1026.2mb 52f 47f
9:10pm 25 29 mph 1026.3mb - 47f
9:00pm 25 31 mph 1026.3mb 52f 47f
8:50pm 25 31 mph 1026.5mb 52f 47f
8:40pm 25 31 mph 1026.7mb - 47f
8:30pm 25 31 mph 1026.5mb 52f 47f
8:20pm 22 29 mph 1026.5mb 52f 48f
8:10pm 25 31 mph 1026.5mb 52f 48f
8:00pm 25 31 mph 1026.5mb 52f 47f
7:50pm 22 27 mph 1026.7mb 52f 47f
7:40pm 22 29 mph 1026.7mb - 48f
7:30pm 22 29 mph 1026.7mb 52f 47f
7:20pm 20 29 mph 1026.5mb 52f 48f
7:10pm 22 27 mph 1026.5mb 52f 48f
7:00pm 22 27 mph 1026.5mb 52f 48f
6:50pm 22 29 mph 1026.5mb 52f 47f
6:40pm 22 29 mph 1026.3mb 52f 47f
6:30pm 22 29 mph 1026.5mb 52f 48f
6:20pm 20 27 mph 1026.5mb 52f 48f
6:10pm 22 29 mph 1026.3mb - 48f
6:00pm 25 31 mph 1026.3mb 52f 47f
5:50pm 20 29 mph 1026.3mb 52f 47f
5:40pm 25 34 mph 1026.7mb 52f 46f
5:30pm 25 31 mph 1026.5mb 52f 48f
5:20pm 22 29 mph 1026.3mb 52f 48f
5:10pm 25 31 mph 1026.5mb 52f 47f
5:00pm 22 29 mph 1026.5mb 52f 47f
4:50pm 22 31 mph 1026.3mb 52f 46f
4:40pm 18 22 mph 1026.3mb 52f 46f
4:30pm 22 27 mph 1026.3mb 52f 47f
4:20pm 22 29 mph 1026.3mb 52f 48f
4:10pm 22 27 mph 1026mb 52f 48f
4:00pm 22 29 mph 1026mb 52f 47f
3:50pm 20 27 mph 1026mb 52f 47f
3:40pm 20 27 mph 1026.2mb 52f 46f
3:30pm 18 22 mph 1026.3mb 52f 47f
3:20pm 18 22 mph 1026.3mb 52f 47f
3:10pm 18 25 mph 1026.5mb 52f 46f
3:00pm 20 25 mph 1026.5mb 52f 47f
2:50pm 18 25 mph 1026.5mb 52f 47f
2:40pm 18 25 mph 1026.5mb 52f 47f
2:30pm 18 25 mph 1026.7mb 52f 46f
2:20pm 18 22 mph 1026.5mb 52f 46f
2:10pm 16 22 mph 1026.7mb 52f 47f
2:00pm 13 18 mph 1026.7mb 52f 47f
1:50pm 13 18 mph 1026.8mb 52f 46f
1:40pm 16 20 mph 1026.8mb 52f 46f
1:30pm 18 25 mph 1026.8mb 52f 47f
1:20pm 16 22 mph 1026.8mb 52f 47f
1:10pm 13 18 mph 1026.8mb 52f 47f
1:00pm 13 18 mph 1026.8mb - 47f
12:50pm 13 18 mph 1027mb - 47f
12:40pm 13 20 mph 1027.2mb 52f 46f
12:30pm 11 20 mph 1027.2mb 52f 46f
12:20pm 13 20 mph 1027.3mb 52f 46f
12:10pm 11 16 mph 1027.5mb 52f 46f
12:00pm 16 22 mph 1027.5mb 52f 47f
11:50am 13 20 mph 1027.5mb 52f 47f
11:40am 11 13 mph 1027.8mb 52f 46f
11:30am 11 18 mph 1027.8mb 52f 47f
11:20am 13 18 mph 1028mb 52f 47f
11:10am 13 18 mph 1028.2mb 52f 47f
11:00am 11 18 mph 1028.3mb 52f 47f
10:50am 16 20 mph 1028.3mb 52f 47f
10:40am 13 20 mph 1028.5mb 52f 47f
10:30am 16 20 mph 1028.5mb 52f 47f
10:20am 13 20 mph 1028.8mb 52f 47f
10:10am 16 22 mph 1028.7mb 52f 47f
10:00am 16 20 mph 1028.7mb 52f -
9:50am 16 25 mph 1028.8mb 52f 48f
9:40am 13 18 mph 1028.7mb 52f 47f
9:30am 16 20 mph 1028.5mb 52f 48f
9:20am 13 20 mph 1028.5mb 52f 48f
9:10am 11 16 mph 1028.3mb 52f 48f
9:00am 11 18 mph 1028.3mb 52f 47f
8:50am 13 18 mph 1028.5mb 52f 47f
8:40am 13 18 mph 1028.5mb 52f 47f
8:30am 13 20 mph 1028.5mb 52f 48f
8:20am 13 18 mph 1028.5mb - 48f
8:10am 16 20 mph 1028.5mb 52f 48f
8:00am 13 18 mph 1028.3mb 52f 48f
7:50am 16 20 mph 1028.5mb 52f 48f
7:40am 16 22 mph 1028.5mb 52f 48f
7:30am 16 22 mph 1028.5mb 52f 48f
7:20am 16 22 mph 1028.3mb 52f 48f
7:10am 16 20 mph 1028.3mb 52f 48f
7:00am 18 22 mph 1028.3mb 52f 49f
6:50am 16 20 mph 1028.5mb 52f 49f
6:40am 18 22 mph 1028.3mb 52f 49f
6:30am 18 22 mph 1028.3mb 52f 49f
6:20am 18 20 mph 1028.3mb 52f 49f
6:10am 18 25 mph 1028.3mb 52f 49f
6:00am 20 25 mph 1028.5mb 52f 49f
5:50am 18 29 mph 1028.3mb 52f 49f
5:40am 18 22 mph 1028.3mb 52f 49f
5:30am 18 25 mph 1028.2mb 52f 49f
5:20am 20 25 mph 1027.8mb 52f 49f
5:10am 18 22 mph 1028mb 52f 49f
4:50am 20 27 mph 1028mb 52f 49f
4:40am 22 29 mph 1028mb 52f 49f
4:30am 22 29 mph 1027.8mb 52f 49f
4:20am 20 25 mph 1028.2mb 52f 49f
4:10am 20 27 mph 1028.3mb 52f 49f
4:00am 22 27 mph 1028mb 52f 49f
3:50am 22 29 mph 1027.8mb 52f 49f
3:40am 20 27 mph 1028.2mb 52f 49f
3:30am 20 27 mph 1028mb 52f 49f
3:20am 22 29 mph 1028.2mb 52f 49f
3:10am 22 27 mph 1027.7mb 52f 50f
3:00am 20 27 mph 1028mb 52f 50f
2:50am 22 29 mph 1027.8mb 52f 50f
2:40am 25 29 mph 1027.5mb 52f 50f
2:30am 25 29 mph 1027.3mb 52f 50f
2:20am 20 29 mph 1027.7mb 52f 50f
2:10am 20 25 mph 1027.8mb - 50f
2:00am 22 29 mph 1027.3mb 52f 50f
1:50am 25 34 mph 1027.3mb 52f 50f
1:40am 27 34 mph 1027mb 52f 50f
1:30am 22 29 mph 1027.2mb 52f 50f
1:20am 22 29 mph 1027.7mb 52f 50f
1:10am 27 36 mph 1027mb 52f 50f
1:00am 29 36 mph 1026.5mb 52f 50f
12:50am 25 31 mph 1026.8mb 52f 50f
12:40am 22 29 mph 1027.8mb 52f 50f
12:30am 20 29 mph 1027.8mb 52f 50f
12:20am 20 29 mph 1027.8mb 52f 50f
12:10am 27 34 mph 1027mb 52f 50f
12:00am 27 34 mph 1026.8mb 52f 50f
Sat 02/25 11:50pm 22 29 mph 1027.7mb 52f 50f
11:40pm 22 29 mph 1027.7mb 52f 50f
11:30pm 25 34 mph 1027.5mb 52f 50f
11:20pm 27 34 mph 1027mb - 50f
11:10pm 27 36 mph 1027mb 52f 50f
11:00pm 29 36 mph 1026.3mb 52f 50f
10:50pm 20 31 mph 1027.5mb 52f 50f
10:40pm 20 27 mph 1028mb 52f 49f
10:30pm 27 36 mph - - 49f
10:20pm 27 34 mph 1027.3mb 52f 49f
10:10pm 22 29 mph 1028mb 52f 50f
10:00pm 22 29 mph 1027.8mb 52f 50f
9:50pm 31 38 mph 1026.7mb 52f 50f
9:40pm 31 38 mph 1026.2mb - 50f
9:30pm 31 38 mph 1026.3mb 52f 50f
9:20pm 22 31 mph 1027.5mb 52f 50f
9:10pm 20 25 mph 1028.5mb 52f 50f
9:00pm 18 25 mph 1028.8mb 52f 50f
8:50pm 18 22 mph 1028.8mb 52f 50f
8:40pm 18 22 mph 1028.8mb 52f 49f
8:30pm 16 25 mph 1028.8mb 52f 49f
8:20pm 18 27 mph 1028.8mb 52f 49f
8:10pm 16 25 mph 1028.7mb 52f 48f
8:00pm 18 22 mph 1028.5mb 52f 49f
7:50pm 18 22 mph 1028.5mb 52f 49f
7:40pm 16 20 mph 1028.5mb 52f 48f
7:30pm 18 25 mph 1028.5mb 52f 49f
7:20pm 20 25 mph 1028.3mb 52f 49f
7:10pm 20 22 mph 1028.2mb 52f 49f
7:00pm 18 25 mph 1028.2mb 52f 49f
6:50pm 18 25 mph 1028.3mb 52f 49f
6:40pm 13 18 mph 1028.2mb 52f 48f
6:30pm 16 22 mph 1028mb 52f 48f
6:20pm 20 29 mph 1028mb 52f 47f
6:10pm 22 34 mph 1028mb 52f 49f
6:00pm 20 27 mph 1027.5mb 52f 49f
5:50pm 18 22 mph 1027.5mb 52f 48f
5:40pm 16 22 mph 1027.5mb 52f 47f
5:30pm 20 27 mph 1027.7mb 52f 47f
5:20pm 20 25 mph 1027.5mb 52f 48f
5:10pm 18 27 mph 1027.3mb 52f 48f
5:00pm 20 29 mph 1027.3mb 52f 48f
4:50pm 22 27 mph 1027.3mb 52f 49f
4:40pm 20 27 mph 1027mb 52f 48f
4:30pm 22 29 mph 1027mb 52f 48f
4:20pm 20 27 mph 1026.8mb 52f 47f
4:10pm 22 29 mph 1026.8mb - 48f
4:00pm 20 27 mph 1026.7mb 52f 48f
3:50pm 18 25 mph 1026.7mb 52f 47f
3:40pm 22 27 mph 1026.7mb 52f 47f
3:30pm 22 31 mph 1026.7mb 52f 47f
3:20pm 22 29 mph 1026.5mb 52f 48f
3:10pm 22 27 mph 1026.5mb - 48f
3:00pm 22 29 mph 1026.3mb 52f 48f
2:50pm 20 29 mph 1026.3mb 52f 47f
2:40pm 22 29 mph 1026.5mb 52f 47f
2:30pm 25 34 mph 1026.5mb 52f 47f
2:20pm 18 25 mph 1026.3mb 52f 47f
2:10pm 22 29 mph 1026.3mb 52f 47f
2:00pm 22 27 mph 1026.2mb 52f 47f
1:50pm 20 27 mph 1026.3mb 52f 46f
1:40pm 27 31 mph 1026.5mb 52f 47f
1:30pm 22 34 mph 1026.3mb 52f 48f
1:20pm 22 27 mph 1026mb 52f 48f
1:10pm 22 29 mph 1026mb 52f 48f
1:00pm 22 29 mph 1026.2mb 52f 48f
12:50pm 25 31 mph 1026mb 52f 48f
12:40pm 22 34 mph 1025.8mb 52f 47f
12:30pm 27 34 mph 1026mb 52f 47f
12:20pm 25 31 mph 1025.8mb 52f 48f
12:10pm 22 29 mph 1025.8mb 52f 48f
12:00pm 22 27 mph 1025.5mb 52f 47f
11:50am 25 31 mph 1025.5mb 52f 47f
11:40am 27 34 mph 1025.5mb 52f 47f
11:30am 25 34 mph 1025.5mb 52f 48f
11:20am 25 31 mph 1025.2mb 52f 48f
11:10am 25 31 mph 1025.3mb 52f 48f
11:00am 22 27 mph 1025.5mb 52f 48f
10:50am 22 29 mph 1025.5mb 52f 48f
10:40am 25 29 mph 1025.5mb 52f 48f
10:30am 25 29 mph 1025.8mb 52f 48f
10:20am 25 29 mph 1025.8mb 52f 48f
10:10am 22 29 mph 1026mb 52f 48f
10:00am 22 29 mph 1026mb 52f 48f
9:50am 20 25 mph 1026mb 52f 48f
9:40am 20 27 mph 1026mb 52f 47f
9:30am 25 29 mph 1026mb 52f 48f
9:20am 20 27 mph 1026mb 52f 48f
9:10am 18 25 mph 1026mb 52f 48f
9:00am 20 25 mph 1026mb 52f 47f
8:50am 22 27 mph 1026.2mb 52f 48f
8:40am 20 25 mph 1026.3mb - 48f
8:30am 18 22 mph 1026.3mb 52f 47f
8:20am 18 25 mph 1026.3mb 52f 47f
8:10am 20 29 mph 1026.5mb 52f 47f
8:00am 16 20 mph 1026.5mb 52f 47f
7:50am 20 27 mph 1026.5mb 52f 47f
7:40am 20 25 mph 1026.7mb 52f 47f
7:30am 18 25 mph 1026.7mb 52f 47f
7:20am 20 27 mph 1026.7mb 52f 47f
7:10am 22 27 mph 1026.7mb 52f 47f
7:00am 22 27 mph 1026.7mb 52f 47f
6:50am 20 25 mph 1026.8mb 52f 46f
6:40am 20 29 mph 1027mb - 47f
6:30am 18 25 mph 1027mb 52f 46f
6:20am 22 27 mph 1027mb 52f 47f
6:10am 18 25 mph 1027mb 52f 48f
6:00am 18 25 mph 1027mb 52f 48f
5:50am 18 22 mph 1027.2mb 52f 47f
5:40am 18 25 mph 1027mb 52f 47f
5:30am 16 22 mph 1027.2mb 52f 46f
5:20am 16 20 mph 1027.3mb 52f 46f
5:10am 20 25 mph 1027.3mb - 47f
5:00am 16 25 mph 1027.2mb 52f 48f
4:50am 18 22 mph 1027.2mb 52f 48f
4:40am 18 22 mph 1027.2mb 52f 48f
4:30am 13 20 mph 1027.2mb - 47f
4:20am 16 20 mph 1027.3mb 52f 47f
4:10am 16 22 mph 1027.2mb - 47f
4:00am 16 18 mph 1027.3mb 52f 47f
3:50am 16 22 mph 1027.2mb 52f 47f
3:40am 18 22 mph 1027.2mb 52f 47f
3:30am 16 20 mph 1027.2mb 52f 48f
3:20am 16 20 mph 1027mb 52f 47f
3:10am 13 18 mph 1027mb 52f 47f
3:00am 16 20 mph 1027mb 52f 47f
2:50am 13 20 mph 1027mb 52f 47f
2:40am 16 22 mph 1027.3mb - 47f
2:30am 16 20 mph 1027mb 52f 47f
2:20am 16 22 mph 1027mb - 47f
2:10am 18 22 mph 1027.3mb 52f 47f
2:00am 16 22 mph 1027.2mb 52f 48f
1:50am 13 20 mph 1027.3mb 52f 48f
1:40am 16 20 mph 1027.3mb 52f 47f
1:30am 13 20 mph 1027.2mb 52f 47f
1:20am 16 20 mph 1027mb 52f 47f
1:10am 16 22 mph 1027mb - 47f
1:00am 16 20 mph 1027mb 52f 47f
12:50am 13 18 mph 1027mb 52f 47f
12:40am 13 18 mph 1027mb 52f 47f
12:30am 11 18 mph 1027.2mb 52f 47f
12:20am 13 18 mph 1027.3mb - 47f
12:10am 13 20 mph 1027.5mb 52f 47f
12:00am 13 18 mph 1027.5mb 52f 47f
Fri 02/24 11:50pm 13 18 mph 1027.7mb 52f 47f
11:40pm 13 16 mph 1027.7mb 52f 47f
11:30pm 13 18 mph 1027.7mb 52f 47f
11:20pm 11 16 mph 1027.7mb 52f 47f
11:10pm 11 16 mph 1027.7mb - 47f
11:00pm 11 16 mph 1027.7mb 52f 47f
10:50pm 11 16 mph 1027.8mb 52f 47f
10:40pm 11 16 mph 1027.8mb 52f 47f
10:30pm 11 13 mph 1027.8mb 52f 47f
10:20pm 9 13 mph 1027.8mb 52f 47f
10:10pm 9 13 mph 1028mb 52f 47f
10:00pm 11 13 mph 1028mb 52f 47f
9:50pm 11 16 mph 1028.2mb 52f 47f
9:40pm 11 13 mph 1028.3mb 52f 47f
9:30pm 11 16 mph 1028.3mb 52f 47f
9:20pm 11 16 mph 1028.5mb 52f 47f
9:10pm 13 16 mph 1028.5mb 52f 47f
9:00pm 13 16 mph 1028.5mb 52f 47f
8:50pm 13 16 mph 1028.7mb 52f 47f
8:40pm 13 18 mph 1028.7mb 52f 47f
8:30pm 13 18 mph 1028.5mb 52f 47f
8:20pm 16 18 mph 1028.7mb 52f 47f
8:10pm 13 18 mph 1028.7mb 52f 47f
8:00pm 13 18 mph 1028.7mb 52f 47f
7:50pm 13 18 mph 1028.7mb 52f 47f
7:40pm 16 18 mph 1028.7mb 52f 47f
7:30pm 16 20 mph 1028.7mb 52f 47f
7:20pm 16 20 mph 1028.8mb 52f 47f
7:10pm 13 18 mph 1028.7mb 52f 47f
7:00pm 13 18 mph 1028.8mb 52f 47f
6:50pm 13 18 mph 1028.7mb 52f 47f
6:40pm 13 18 mph 1028.7mb 52f 48f
6:30pm 16 18 mph 1028.7mb 52f 48f
6:20pm 13 18 mph 1028.7mb 52f 48f
6:10pm 16 18 mph 1028.7mb 52f 48f
6:00pm 13 20 mph 1028.7mb 52f 48f
5:50pm 16 20 mph 1028.7mb 52f 47f
5:40pm 16 20 mph 1028.7mb 52f 47f
5:30pm 16 18 mph 1028.8mb 52f 47f
5:20pm 16 20 mph 1028.8mb 52f 47f
5:10pm 16 20 mph 1028.7mb 52f 47f
5:00pm 13 18 mph 1028.5mb 52f 47f
4:50pm 16 18 mph 1028.5mb 52f 47f
4:40pm 16 20 mph 1028.5mb 52f 47f
4:30pm 16 18 mph 1028.5mb 52f 47f
4:20pm 16 22 mph 1028.3mb 52f 47f
4:10pm 13 20 mph 1028.3mb 52f 48f
4:00pm 11 16 mph 1028.3mb 52f 48f
3:50pm 13 16 mph 1028.3mb 52f 48f
3:40pm 11 16 mph 1028.2mb - 48f
3:30pm 11 16 mph 1028mb 52f 48f
3:20pm 11 18 mph 1028.2mb 52f 48f
3:10pm 13 18 mph 1028.2mb 52f 47f
3:00pm 13 18 mph 1028.2mb 52f 47f
2:50pm 13 18 mph 1028mb 52f 47f
2:40pm 13 18 mph 1028mb 52f 48f
2:30pm 13 18 mph 1028mb 52f 48f
2:20pm 13 18 mph 1028mb 52f 48f
2:10pm 13 18 mph 1028mb 52f 48f
2:00pm 13 18 mph 1027.8mb 52f 48f
1:50pm 16 18 mph 1027.8mb 52f 48f
1:40pm 16 20 mph 1027.8mb 52f 48f
1:30pm 13 18 mph 1027.8mb 52f 47f
1:20pm 13 18 mph 1027.8mb 52f 48f
1:10pm 13 18 mph 1027.8mb 52f 47f
1:00pm 13 18 mph 1027.8mb 52f 47f
12:50pm 13 20 mph 1027.8mb 52f 47f
12:40pm 13 20 mph 1027.8mb - 47f
12:30pm 11 18 mph 1027.8mb 52f 47f
12:20pm 11 16 mph 1027.8mb 52f 47f
12:10pm 11 16 mph 1028mb 52f 47f
12:00pm 13 18 mph 1028mb 52f 46f
11:50am 13 18 mph 1028mb 52f 46f
11:40am 13 18 mph 1028.2mb 52f 46f
11:30am 13 18 mph 1028.5mb 52f 46f
11:20am 13 18 mph 1028.7mb 52f 46f
11:10am 13 18 mph 1028.8mb 52f 46f
11:00am 16 20 mph 1028.8mb 52f 46f
10:50am 16 20 mph 1028.8mb 52f 46f
10:40am 16 20 mph 1028.8mb 52f -
10:30am  -  mph 1028.8mb - -
10:20am 13 18 mph 1029mb - 46f
10:10am 16 20 mph 1029mb 52f 46f
9:50am 16 20 mph 1029.2mb 52f 46f
9:40am 16 22 mph 1029.3mb 52f 46f
9:30am 16 20 mph 1029.3mb 52f 46f
9:20am 18 25 mph 1029.3mb 52f 46f
9:10am 18 25 mph 1029.3mb 52f 46f
9:00am 16 22 mph 1029.3mb 52f 46f
8:50am 18 25 mph 1029.3mb 52f 46f
8:40am 18 27 mph 1029.3mb 52f 46f
8:30am 16 20 mph 1029.3mb 52f 47f
8:20am 16 20 mph 1029.3mb 52f 47f
8:10am 13 20 mph 1029.5mb 52f 47f
8:00am 11 16 mph 1029.5mb 52f 47f
7:50am 11 16 mph 1029.8mb 52f 47f
7:40am 11 16 mph 1029.8mb 52f 47f
7:30am 9 13 mph 1029.8mb 52f 46f
7:20am 9 13 mph 1029.8mb 52f 46f
7:10am 11 16 mph 1029.8mb 52f 45f
7:00am 13 18 mph - 52f 45f
6:50am 13 18 mph 1029.8mb 52f 45f
6:40am 13 18 mph 1029.8mb 52f 45f
6:30am  -  mph 1029.8mb 52f -
6:20am 16 20 mph 1029.8mb - -
6:10am 16 18 mph 1029.8mb 52f 45f
6:00am 13 16 mph 1029.8mb 52f 46f
5:50am 11 16 mph 1029.8mb 52f 46f
5:40am 9 13 mph 1029.8mb - 46f
5:30am 9 11 mph 1029.7mb 52f 46f
5:20am 9 11 mph 1029.7mb 52f 45f
5:10am 9 11 mph 1029.5mb 52f 45f
5:00am 11 13 mph 1029.5mb 52f 45f
4:50am 13 16 mph 1029.7mb 52f 45f
4:40am 13 16 mph 1029.7mb 52f 45f
4:30am 13 18 mph 1029.8mb 52f 45f
4:20am 16 18 mph 1029.7mb 52f 45f
4:10am 16 20 mph 1029.8mb 52f 45f
4:00am 16 20 mph 1029.8mb 52f 45f
3:50am 13 20 mph 1029.8mb 52f 46f
3:40am 13 16 mph 1029.8mb - 46f
3:30am 13 16 mph 1029.8mb 52f 45f
3:20am 11 16 mph 1029.8mb 52f 45f
3:10am 13 18 mph 1029.8mb 52f 45f
3:00am 13 16 mph 1030mb 52f 45f
2:50am 13 16 mph 1030mb 52f 46f
2:40am 11 13 mph 1030mb 52f 46f
2:30am 11 16 mph 1030mb 52f 45f
2:20am 11 16 mph 1030mb 52f 46f
2:10am 11 13 mph 1030.2mb 52f 45f
2:00am 13 16 mph 1030.2mb 52f -
1:50am 13 16 mph 1030.3mb 52f 46f
1:40am 13 18 mph 1030.2mb 52f 46f
1:20am 13 18 mph 1030.3mb 52f 46f
1:10am 11 16 mph 1030.3mb 52f 47f
1:00am 11 16 mph 1030.3mb 52f -
12:50am 11 13 mph 1030.3mb 52f 46f
12:40am 11 16 mph 1030.3mb 52f 46f
12:30am 9 13 mph 1030.3mb 52f 46f
12:20am 11 16 mph 1030.3mb - 46f
12:10am 11 16 mph 1030.5mb 52f 46f
12:00am 9 13 mph 1030.5mb 52f 46f
Thu 02/23 11:50pm 9 13 mph 1030.5mb 52f 46f
11:40pm 9 13 mph 1030.5mb 52f 46f
11:30pm 9 11 mph 1030.7mb 52f 47f
11:20pm 7 11 mph 1030.7mb 52f 47f
11:10pm 7 11 mph 1030.7mb 52f 47f
11:00pm 7 11 mph 1030.8mb 52f 47f
10:50pm 7 9 mph 1031mb - 47f
10:40pm 4 7 mph 1031.2mb 52f 47f
10:30pm 7 11 mph 1031.3mb 52f 47f
10:20pm 7 9 mph 1031.5mb 52f -
10:10pm 7 11 mph 1031.5mb 52f 46f
10:00pm 7 11 mph 1031.8mb 52f 46f
9:50pm 7 11 mph 1031.8mb 52f 46f
9:40pm 7 11 mph 1032mb 52f 46f
9:30pm 7 9 mph 1032.3mb 52f 47f
9:20pm 7 11 mph 1032.5mb 52f 46f
9:10pm 7 9 mph 1032.7mb 52f 46f
9:00pm 7 11 mph 1032.8mb 52f 47f
8:50pm 9 13 mph 1033mb 52f 46f
8:40pm 9 13 mph 1033.2mb 52f 46f